sat.trackr.live / text

‹ back to catalog

STARLINK-5324

NORAD 55677 · 2023-021BB

PAYLOAD ACTIVE UNKNOWN

§ Identity

Operator
Country
US
Launch date
2023-02-17
Launch site
AFWTR
Launch vehicle
Mass (kg)
RCS (m²)

Purposes: comms

External: N2YO · Heavens-Above · Gunter

§ Orbital elements

Epoch: 2026-05-25T03:54:27.151200Z

Period
96.11 min
Inclination
69.9994°
Eccentricity
0.0002698
Mean motion
14.98331742 rev/d
Perigee alt
570.2 km
Apogee alt
573.9 km
Semi-major
6,950.2 km
B*
1.5650e-5
RAAN
311.5956°
Arg perigee
270.1002°
Mean anomaly
89.9848°
Rev number
18,123

§ Raw data

STARLINK-53241 55677U 23021BB  26145.16281425  .00000094  00000+0  15650-4 0  99982 55677  69.9994 311.5956 0002698 270.1002  89.9848 14.98331742181238

JSON: /api/v1/satellites/55677 · /tle

For live sub-satellite position, see the globe view (requires WebGL).

§ Visibility from observer

Set your observer location to see the next 7 days of passes ≥ 10°. The values pass through the URL so the page stays shareable.

No JS? Fill the form by hand. The geolocation button needs JavaScript.